Location: Congrier
(47.8099°N, 1.1170°W)
Time: 12:30:21
(UTC+00:00)

SJ-11-01 - Pass Details

Date: 28 January 2023
Orbit: 682 x 699 km, 97.9° (Epoch: 22 March)

Event Time Altitude Azimuth Distance (km) Brightness Sun altitude
Rises 17:32:15 0° 167° (SSE) 3,045 7.7 -6.1°
Reaches altitude 10° 17:34:28 10° 168° (SSE) 2,136 6.9 -6.4°
Maximum altitude 17:39:10 84° 257° (WSW) 704 4.4 -7.2°
Drops below altitude 10° 17:43:55 10° 345° (NNW) 2,165 6.8 -7.9°
Sets 17:46:11 0° 346° (NNW) 3,089 7.6 -8.3°
